Regional Weather Roundup
Issued by NWS

Home | Current Version | Previous Version | Text Only | Print | Product List | Glossary On
Versions: 1 2 3 4 5 6 7 8 9 10 11 12 13 14 15 16 17 18 19 20 21 22 23 24 25 26 27
000
ASUS43 KDMX 181907
RWRIA

WEATHER ROUNDUP FOR IOWA
NATIONAL WEATHER SERVICE DES MOINES IA
200 PM CDT FRI APR 18 2014

NOTE: "FAIR" INDICATES FEW OR NO CLOUDS BELOW 12,000 FEET WITH NO
SIGNIFICANT WEATHER AND/OR OBSTRUCTIONS TO VISIBILITY.

* - THESE STATIONS ARE NOT NWS STATIONS...THUS NOT UNDER NWS
QUALITY CONTROL.  THEY ALSO DO NOT REPORT WEATHER SUCH
AS PRECIPITATION OR FOG.

IAZ001>003-012>014-020>022-031>034-043>046-182000-
   NORTHWEST IOWA

CITY           SKY/WX    TMP DP  RH WIND       PRES   REMARKS
CARROLL *      SUNNY     61  32  33 S15G25    30.23F
CHEROKEE *     SUNNY     63  32  31 S15       30.19F
DENISON *      SUNNY     61  32  33 S20G26    30.20F
LE MARS *      SUNNY     63  32  31 S15G26    30.15F
ORANGE CITY *  SUNNY     63  28  27 S15G25    30.15F
SHELDON *      SUNNY     61  34  36 SE24G31   30.16F
SIOUX CITY     SUNNY     65  33  30 S24G35    30.16F
SPENCER        SUNNY     60  32  34 SE21      30.21F
STORM LAKE *   SUNNY     61  32  33 SE20G28   30.21F
$$

IAZ055>058-069>071-079>083-090>094-182000-
   SOUTHWEST IOWA

CITY           SKY/WX    TMP DP  RH WIND       PRES   REMARKS
ATLANTIC *     SUNNY     61  32  33 S15G22    30.22F
AUDUBON *      SUNNY     63  25  23 SE10G20   30.24F
CLARINDA *     SUNNY     63  37  39 SE9G16    30.25F
COUNCIL BLFS * SUNNY     63  37  39 S17G24    30.19F
CRESTON *      SUNNY     61  36  39 SE10G17   30.26F
HARLAN  *      SUNNY     61  32  33 S17       30.25F
LAMONI         SUNNY     60  34  37 SE8G17    30.27F
RED OAK *      SUNNY     63  36  36 S13       30.23F
SHENANDOAH *   SUNNY     64  36  34 SE15      30.24F
$$

IAZ047>049-059>061-072>074-084-182000-
   CENTRAL IOWA

CITY           SKY/WX    TMP DP  RH WIND       PRES   REMARKS
AMES           SUNNY     57  33  40 SE13G18   30.28F
ANKENY *       SUNNY     59  36  41 SE15      30.28F
CHARITON *     SUNNY     59  34  38 VRB7      30.28F
DES MOINES     MOSUNNY   61  33  35 SE13G18   30.29F
GRINNELL*      SUNNY     57  32  38 CALM      30.31F
KNOXVILLE *    SUNNY     59  32  36 SE8       30.29F
MARSHALLTOWN   SUNNY     56  33  42 SE5       30.29F
NEWTON *       SUNNY     57  30  35 SE6G16    30.30F
PELLA *        SUNNY     59  32  36 E3        30.31F
PERRY *          N/A     61  28  29 SE17G23   30.26F
$$

IAZ004>006-015-016-023>025-035-036-182000-
   NORTH CENTRAL IOWA

CITY           SKY/WX    TMP DP  RH WIND       PRES   REMARKS
ALGONA *       SUNNY     57  32  38 SE15G24   30.26F
CLARION *      SUNNY     57  34  41 SE9G18    30.28F
ESTHERVILLE    SUNNY     57  34  41 SE22      30.24F
FORT DODGE *   SUNNY     59  36  41 SE9G20    30.27F
MASON CITY     SUNNY     55  33  43 SE10      30.32F
FOREST CITY *  SUNNY     54  32  43 SE10G16   30.29F
IOWA FALLS *     N/A     57  32  38 E8        30.30F
$$

IAZ007>011-017>019-026>030-037>042-050>054-066-182000-
   NORTHEAST IOWA

CITY           SKY/WX    TMP DP  RH WIND       PRES   REMARKS
CEDAR RAPIDS   SUNNY     56  28  34 NE7       30.31F
CHARLES CITY * SUNNY     52  28  40 VRB5      30.33S
CLINTON *      SUNNY     55  28  35 E3        30.35S
DECORAH *      SUNNY     50  25  37 S5        30.32F
DUBUQUE        SUNNY     53  29  39 E3        30.33F
MONTICELLO *   SUNNY     55  30  38 VRB5      30.32F
OELWEIN *      SUNNY    N/A N/A N/A CALM      30.33F
WATERLOO       SUNNY     54  28  36 VRB3      30.32F
$$

IAZ064-065-067-068-078-182000-
   EAST CENTRAL IOWA

CITY           SKY/WX    TMP DP  RH WIND       PRES   REMARKS
DAVENPORT      SUNNY     58  28  32 CALM      30.33F
IOWA CITY      SUNNY     58  32  37 E5        30.33F
MT. PLEASANT * SUNNY     61  27  27 E5        30.32S
MUSCATINE *    SUNNY     59  28  31 VRB5      30.32F
QUAD CITIES    SUNNY     59  29  31 VRB3      30.32F
$$

IAZ062-063-075>077-085>089-095>099-182000-
   SOUTHEAST IOWA

CITY           SKY/WX    TMP DP  RH WIND       PRES   REMARKS
BURLINGTON     SUNNY     59  25  27 SE5       30.31F
FAIRFIELD *    SUNNY     59  30  33 VRB5      30.31F
FORT MADISON * SUNNY     59  34  38 E5        30.32F
KEOKUK *       SUNNY     59  32  36 E9        30.31F
OSKALOOSA *      N/A     59  32  36 CALM      30.31F
CENTERVILLE *  SUNNY     61  34  36 E10       30.30F
OTTUMWA        SUNNY     59  31  34 E6        30.30F
WASHINGTON *   SUNNY     59  28  31 VRB3      30.32F
$$

ABBREVIATIONS USED IN REMARKS
   TC - TEMPERATURES IN CELSIUS
  WCI - WIND CHILL INDEX
   HX - HEAT INDEX
  VSB - VISIBILITY
$$




USA.gov is the U.S. government's official web portal to all federal, state and local government web resources and services.